Date,TemperatureHighF,TemperatureAvgF,TemperatureLowF,DewpointHighF,DewpointAvgF,DewpointLowF,HumidityHigh,HumidityAvg,HumidityLow,PressureMaxIn,PressureMinIn,WindSpeedMaxMPH,WindSpeedAvgMPH,GustSpeedMaxMPH,PrecipitationSumIn
2013-1-1,23.1,14.8,7.2,19.4,7.7,2.5,91,74,51,30.31,30.16,14,4,14,0.00
2013-1-2,26.5,17.2,4.2,17.1,12.1,1.7,90,81,55,30.27,30.16,19,7,19,0.00
2013-1-3,32.2,22.1,14.3,29.4,18.0,10.5,98,84,72,30.38,30.18,30,9,30,0.00
2013-1-4,35.1,23.4,10.6,26.4,19.2,7.2,94,84,60,30.37,30.28,19,8,19,0.00
2013-1-5,36.1,31.3,16.9,35.2,30.4,15.5,100,97,86,30.29,30.02,26,10,26,0.00
2013-1-6,35.8,24.6,18.7,35.1,21.9,17.3,99,90,78,30.37,30.01,37,7,37,0.00
2013-1-7,38.9,29.8,16.6,31.8,27.4,15.2,98,91,67,30.38,30.15,28,8,28,0.00
2013-1-8,44.1,35.9,27.3,35.9,32.5,25.9,96,87,71,30.20,30.10,16,8,18,0.00
2013-1-9,48.9,37.7,30.8,38.4,29.4,22.7,98,73,38,30.53,30.10,25,5,25,0.00
2013-1-10,49.5,40.3,29.5,49.5,38.2,-49.0,100,93,55,30.52,29.82,24,5,24,0.00
2013-1-11,57.1,51.7,47.1,55.5,51.3,46.9,100,98,90,29.87,29.73,30,15,31,0.00
2013-1-12,51.9,37.1,28.6,51.3,35.2,27.4,100,93,71,30.01,29.76,25,8,26,0.00
2013-1-13,28.6,19.3,14.7,28.4,16.4,11.4,100,89,80,30.33,29.90,0,0,0,0.01
2013-1-14,24.7,19.2,13.3,17.5,14.8,10.7,93,83,62,30.49,20.83,0,0,0,0.00
2013-1-15,28.7,22.6,13.1,23.0,18.9,11.2,94,86,63,30.47,30.16,0,0,0,0.00
2013-1-16,36.9,31.0,15.3,31.5,24.9,13.8,97,79,57,30.17,29.95,32,6,32,0.00
2013-1-17,35.1,28.2,23.8,33.4,21.6,16.2,99,77,55,30.48,30.12,23,6,23,0.00
2013-1-18,44.4,35.1,22.8,31.7,27.7,18.1,92,75,54,30.49,30.05,37,14,37,0.02
2013-1-19,53.2,42.2,32.9,36.4,32.3,21.9,85,68,48,30.11,29.86,37,17,42,0.00
2013-1-20,32.9,20.4,16.4,22.3,10.9,4.5,79,67,46,30.37,30.11,41,13,41,0.00
2013-1-21,18.0,9.3,5.7,12.1,-1.8,-7.5,78,61,42,30.39,30.26,39,16,39,0.00
2013-1-22,16.7,12.0,3.0,1.6,-1.9,-7.2,74,54,40,30.47,30.37,22,7,22,0.00
2013-1-23,33.5,22.5,14.8,15.8,8.1,0.5,61,54,39,30.39,30.14,28,12,29,0.00
2013-1-24,23.4,19.1,7.9,9.8,3.5,-6.2,74,50,40,30.66,30.32,20,7,22,0.00
2013-1-25,36.9,28.1,20.3,20.0,15.4,3.9,86,60,41,30.33,30.05,28,10,28,0.00
2013-1-26,32.5,25.2,13.3,16.7,11.0,6.0,76,55,39,30.44,30.25,19,4,19,0.00
2013-1-27,44.1,35.5,25.7,44.1,33.1,15.7,100,91,63,30.38,29.95,27,10,27,0.00
2013-1-28,56.6,51.9,43.6,56.6,51.9,43.3,100,100,100,29.99,29.83,22,8,24,0.00
2013-1-29,64.1,55.7,50.8,63.8,55.7,50.8,100,100,96,29.84,29.44,37,8,37,0.01
2013-1-30,51.2,29.8,20.0,51.0,28.2,16.3,100,94,84,29.82,29.31,55,19,55,0.00
2013-1-31,23.6,12.9,6.6,22.5,5.7,-2.3,96,73,59,30.32,29.82,39,21,41,0.00
2013-2-1,21.7,15.8,3.3,21.3,6.6,-3.2,99,68,50,30.46,30.20,34,13,34,0.00
2013-2-2,29.4,21.1,17.5,28.0,17.5,12.1,100,86,76,30.22,30.07,27,7,27,0.00
2013-2-3,29.4,24.7,18.1,24.1,18.3,13.9,100,77,56,30.14,30.01,32,6,32,0.00
2013-2-4,37.3,28.1,22.7,28.8,24.3,17.9,96,86,59,30.03,29.84,22,7,22,0.00
2013-2-5,41.4,33.2,21.5,34.2,29.8,20.4,99,87,70,30.13,29.86,30,9,30,0.00
2013-2-6,44.9,36.3,25.2,34.3,32.0,24.4,100,85,58,30.26,30.10,18,7,18,0.00
2013-2-7,38.8,36.0,33.7,38.5,35.8,33.3,100,99,90,30.11,29.87,22,9,27,0.00
2013-2-8,34.9,28.8,26.2,34.6,27.0,24.6,100,93,85,30.41,30.04,33,6,34,0.00
2013-2-9,36.9,33.5,27.8,34.3,31.2,25.9,96,91,82,30.41,30.06,22,10,22,0.00
2013-2-10,48.9,44.2,35.5,48.8,41.7,30.5,100,92,61,30.08,29.54,38,17,43,0.00
2013-2-11,42.2,33.5,28.7,33.5,26.9,22.6,93,77,58,30.15,29.66,50,17,50,0.00
2013-2-12,39.4,31.1,25.4,30.0,28.2,24.5,98,90,59,30.18,29.95,17,3,17,0.00
2013-2-13,47.3,35.8,25.4,34.1,31.1,25.3,100,85,49,29.96,29.78,21,5,21,0.00
2013-2-14,41.7,36.4,33.7,35.6,32.7,28.0,98,86,67,30.05,29.75,34,11,34,0.00
2013-2-15,34.9,28.0,22.3,33.8,16.7,8.9,97,64,37,30.26,30.05,26,13,26,0.00
2013-2-16,29.7,22.1,14.8,14.5,11.8,6.1,78,65,46,30.26,30.16,27,9,27,0.00
2013-2-17,37.2,28.5,12.4,22.0,17.3,7.1,83,63,44,30.24,29.96,22,9,22,0.00
2013-2-18,54.5,37.6,26.6,49.1,33.7,20.9,100,87,58,29.96,29.50,44,21,48,0.00
2013-2-19,27.0,20.4,16.3,23.2,11.0,5.9,89,67,58,30.28,29.81,50,19,50,0.00
2013-2-20,25.2,18.0,7.2,16.3,10.7,-0.3,92,74,49,30.44,30.28,21,7,21,0.00
2013-2-21,29.0,24.4,14.4,28.0,23.2,0.0,100,95,81,30.38,29.89,30,12,34,0.00
2013-2-22,34.1,29.2,26.9,33.3,27.7,24.3,100,94,86,30.02,29.81,29,10,30,0.00
2013-2-23,31.0,24.6,20.0,24.6,20.1,-8.6,91,83,66,30.04,29.99,18,6,18,0.00
2013-2-24,38.2,28.8,13.6,30.2,25.2,12.4,98,87,57,30.16,30.03,10,1,10,0.00
2013-2-25,43.1,34.8,26.1,36.3,31.7,25.3,99,89,66,30.15,29.85,23,11,28,0.00
2013-2-26,35.5,33.0,31.9,33.4,32.5,28.8,100,98,78,29.86,29.48,45,7,45,0.00
2013-2-27,34.7,32.6,30.7,34.1,32.6,30.6,100,100,98,29.83,29.58,20,10,20,0.00
2013-2-28,36.9,33.6,32.3,34.4,33.2,32.2,100,98,87,30.11,29.83,21,7,21,0.00
2013-3-1,32.4,27.2,25.1,32.4,25.7,23.5,100,94,81,30.24,30.09,20,9,20,0.00
2013-3-2,29.5,23.0,17.1,24.2,13.2,8.0,95,67,42,30.26,30.20,22,4,22,0.00
2013-3-3,34.7,25.8,14.5,19.9,15.8,8.9,92,67,37,30.23,30.10,11,1,11,0.00
2013-3-4,35.6,32.8,26.8,32.0,28.5,16.6,98,84,65,30.13,29.92,28,9,28,0.00
2013-3-5,34.8,33.4,31.5,34.3,33.0,31.3,100,99,90,29.93,29.86,33,8,54,0.00
2013-3-15,53.2,48.4,45.8,47.0,44.7,0.0,98,88,60,29.94,29.70,0,0,0,0.00
2013-3-16,46.7,35.4,31.2,45.7,33.2,28.0,100,92,66,30.14,29.67,0,0,0,0.00
2013-3-17,37.4,33.0,29.6,31.3,28.6,-47.0,96,84,63,30.19,29.93,0,0,0,0.39
2013-3-18,39.2,31.4,26.6,38.7,27.1,-46.8,100,85,65,29.97,29.72,0,0,0,0.02
2013-3-19,40.4,31.7,21.0,18.0,15.6,0.0,73,52,29,30.19,29.95,0,0,0,0.00
2013-3-20,30.5,24.3,18.1,19.7,9.5,4.5,76,53,38,30.23,30.10,0,0,0,0.00
2013-3-21,35.5,26.7,12.9,14.4,10.2,5.9,81,51,33,30.13,30.02,0,0,0,0.00
2013-3-22,45.0,34.8,20.1,22.6,16.3,0.0,89,49,26,30.10,30.01,0,0,0,0.39
2013-3-23,46.9,37.5,31.0,26.6,23.4,17.6,80,58,35,30.12,29.98,0,0,0,0.00
2013-3-24,32.9,30.5,28.8,31.8,30.2,0.0,100,99,68,30.00,29.64,0,0,0,0.02
2013-3-25,36.2,32.6,27.2,32.0,29.0,25.8,100,87,73,30.15,29.76,0,0,0,0.00
2013-3-26,39.7,35.2,31.5,30.1,27.9,0.0,86,75,49,30.32,30.15,0,0,0,0.00
2013-3-27,44.9,35.4,28.1,30.2,25.1,19.3,90,68,40,30.39,30.32,0,0,0,0.00
2013-3-28,48.9,38.7,25.8,32.6,28.9,24.1,96,70,40,30.41,30.31,0,0,0,0.00
2013-3-29,56.6,45.9,35.7,36.5,30.7,26.9,96,58,33,30.34,30.24,0,0,0,0.00
2013-3-30,55.6,47.4,34.0,47.4,41.2,31.5,100,81,49,30.25,29.93,0,0,0,0.00
2013-3-31,61.6,48.8,40.7,50.9,34.3,23.6,100,61,32,29.98,29.83,0,0,0,0.00
2013-4-1,43.7,36.0,30.3,24.9,16.7,9.7,77,46,26,30.26,29.98,0,0,0,0.00
2013-4-2,46.9,36.4,23.1,21.3,15.4,4.4,77,45,18,30.36,30.26,0,0,0,0.00
2013-4-3,49.5,39.4,27.8,20.3,14.9,5.6,69,39,17,30.47,30.32,0,0,0,0.00
2013-4-4,59.1,47.7,32.1,22.4,18.3,12.8,59,33,16,30.32,30.04,0,0,0,0.00
2013-4-5,58.2,49.8,43.5,32.0,19.4,12.6,62,31,17,30.23,30.06,0,0,0,0.00
2013-4-6,69.4,57.6,41.3,52.9,33.9,19.3,86,44,20,30.11,29.69,0,0,0,0.00
2013-4-7,69.0,57.8,41.3,50.0,39.3,33.6,99,54,28,29.99,29.76,0,0,0,0.00
2013-4-8,74.2,65.0,55.8,61.9,56.7,0.0,100,77,45,29.91,29.66,0,0,0,0.02
2013-4-9,79.3,68.5,58.8,63.0,59.0,49.5,99,74,36,29.92,29.82,0,0,0,0.00
2013-4-10,66.9,45.8,40.7,62.9,45.7,0.0,100,100,80,29.94,29.72,0,0,0,0.39
2013-4-11,50.9,43.4,38.1,50.9,41.8,34.1,100,94,84,29.73,29.62,0,0,0,0.00
2013-4-12,43.5,40.4,37.1,40.0,36.9,33.7,98,87,76,29.96,29.66,0,0,0,0.00
2013-4-13,52.1,45.2,35.9,39.4,33.6,0.0,88,65,43,30.04,29.94,25,2,25,0.00
2013-4-14,74.1,61.7,44.8,50.3,44.3,35.8,97,56,26,29.98,29.64,42,15,42,0.00
2013-4-15,63.4,52.1,45.6,59.9,51.0,44.8,100,96,52,30.02,29.72,40,8,41,0.00
2013-4-16,52.6,48.3,42.4,48.4,43.8,0.0,100,85,47,30.23,29.96,23,7,23,0.00
2013-4-17,56.7,51.1,43.9,56.7,50.0,-99.7,100,96,77,30.24,29.73,35,12,42,6.33
2013-4-18,62.9,50.2,39.0,62.7,49.1,0.0,100,96,85,29.73,29.48,50,17,63,0.00
2013-4-19,41.7,38.0,35.8,37.0,33.1,29.2,92,82,69,30.42,29.65,42,18,42,0.00
2013-4-20,50.2,41.5,31.6,33.6,28.7,20.9,93,62,35,30.40,30.05,24,5,24,0.00
2013-4-21,56.9,48.0,36.3,39.2,34.5,26.1,88,61,43,30.48,30.31,28,8,28,0.00
2013-4-22,67.3,57.2,39.5,44.2,37.9,24.1,89,51,23,30.33,30.04,23,7,23,0.00
2013-4-23,59.5,44.6,38.6,54.3,44.1,38.6,100,99,55,30.08,29.94,30,8,30,0.00
2013-4-24,50.4,42.9,37.1,40.8,34.2,27.0,100,74,44,30.21,29.99,25,9,25,0.00
2013-4-25,55.4,47.7,38.9,37.5,30.6,-34.5,87,53,33,30.34,30.16,39,8,39,0.40
2013-4-26,64.2,52.6,39.7,49.3,42.8,30.9,97,72,44,30.37,30.28,30,9,30,0.00
2013-4-27,62.2,52.9,43.5,54.5,49.8,37.6,100,91,44,30.33,30.00,19,5,19,0.00
2013-4-28,66.5,57.1,51.9,60.5,55.0,51.9,100,93,64,30.00,29.87,14,7,17,0.00
2013-4-29,74.6,63.5,45.3,61.3,56.4,45.1,100,80,47,29.96,29.78,33,12,33,0.00
2013-4-30,85.0,72.2,59.5,64.5,53.4,34.0,100,57,18,29.99,29.80,34,13,34,0.00
2013-5-1,82.8,72.2,57.8,62.2,49.9,33.6,100,51,19,30.14,29.99,27,5,27,0.00
2013-5-2,69.1,58.5,49.7,64.2,55.3,46.7,100,90,69,30.19,30.11,21,7,22,6.37
2013-5-3,63.4,55.8,43.2,63.4,55.8,43.1,100,100,100,30.13,29.83,26,10,26,0.00
2013-5-4,63.7,57.2,54.0,61.0,56.9,53.8,100,99,82,30.05,29.87,19,5,19,0.00
2013-5-5,71.1,60.4,53.8,60.0,54.5,39.0,100,83,33,30.05,29.93,25,7,25,0.00
2013-5-6,74.3,65.0,54.7,56.4,42.3,26.7,100,49,18,30.04,29.97,28,6,28,0.00
2013-5-7,78.3,67.5,54.3,45.3,34.3,0.0,59,32,8,30.08,30.00,16,4,16,0.39
2013-5-8,81.5,70.0,55.1,55.4,42.9,27.5,89,43,14,30.07,29.98,13,2,13,0.00
2013-5-9,69.3,63.3,60.7,65.6,62.2,52.2,100,97,62,30.02,29.85,32,5,32,0.00
2013-5-10,61.0,54.3,51.3,61.0,54.1,50.7,100,99,97,30.01,29.84,18,6,18,0.00
2013-5-11,62.0,52.3,43.8,56.7,34.8,21.2,100,56,23,30.14,29.95,41,11,41,0.00
2013-5-12,57.7,49.6,37.9,34.2,25.9,-42.0,80,41,24,30.22,30.14,33,9,33,0.00
2013-5-13,69.0,58.4,39.9,42.4,31.9,19.1,86,40,16,30.23,30.05,18,5,18,0.00
2013-5-14,90.3,74.9,55.0,52.0,47.1,35.8,73,39,18,30.05,29.74,24,11,25,0.00
2013-5-15,83.8,76.2,70.2,52.3,48.6,43.8,51,38,28,29.89,29.79,27,6,27,0.00
2013-5-16,84.5,72.5,62.1,62.4,54.9,38.3,90,57,22,29.98,29.86,22,5,22,0.00
2013-5-17,80.8,70.1,58.6,69.1,62.4,43.9,100,80,29,30.03,29.95,21,4,21,0.00
2013-5-18,80.7,72.2,62.9,70.2,63.0,55.1,100,75,42,30.07,29.93,15,3,15,0.00
2013-5-19,88.6,78.1,62.3,71.4,66.9,59.7,100,71,39,29.97,29.75,31,9,31,0.00
2013-5-20,84.3,72.4,63.5,72.9,63.7,48.9,100,79,31,29.89,29.72,39,12,53,0.00
2013-5-21,80.5,71.5,62.9,70.8,66.1,59.5,100,85,51,29.80,29.69,30,10,30,0.00
2013-5-22,73.3,65.1,60.7,68.3,59.6,50.7,100,84,48,29.84,29.67,26,10,26,0.39
2013-5-23,61.3,56.3,50.6,59.8,54.3,48.8,100,93,67,30.29,29.84,27,7,27,0.00
2013-5-24,65.2,55.7,41.1,50.2,37.6,30.3,100,55,29,30.46,30.29,17,5,17,0.00
2013-5-25,54.9,51.4,48.8,53.8,46.0,31.2,100,85,41,30.45,30.26,18,6,19,0.00
2013-5-26,63.9,58.2,50.2,63.1,58.0,50.1,100,99,97,30.31,30.07,18,6,22,0.00
2013-5-27,69.5,63.9,57.3,69.1,63.9,57.3,100,100,98,30.15,29.83,20,6,24,0.00
2013-5-28,76.7,71.2,64.0,75.5,70.8,64.0,100,99,87,29.94,29.80,38,9,40,0.00
2013-5-29,84.5,75.4,63.6,73.6,67.9,63.3,100,79,54,30.01,29.87,32,12,32,0.00
2013-5-30,82.4,69.9,62.7,73.7,66.7,59.7,100,91,57,29.95,29.81,44,12,44,0.00
2013-5-31,74.7,69.5,63.2,74.7,69.3,62.9,100,99,90,29.93,29.73,27,9,27,0.00
2013-6-1,74.5,66.6,62.5,71.4,64.5,60.2,100,93,75,29.86,29.72,32,11,32,0.00
2013-6-2,63.1,59.6,55.9,62.2,57.1,52.5,100,91,82,30.08,29.84,24,8,24,0.00
2013-6-3,65.9,59.3,50.5,55.2,49.1,40.4,100,72,44,30.17,30.05,14,3,14,0.00
2013-6-4,72.1,64.6,52.2,58.3,50.9,41.7,97,64,38,30.16,30.05,18,3,18,0.00
2013-6-5,78.3,69.3,57.2,63.7,56.8,47.7,100,67,37,30.09,29.90,12,3,14,0.00
2013-6-6,72.3,65.1,58.7,63.3,58.4,52.0,94,79,62,29.93,29.87,18,6,18,0.00
2013-6-7,74.0,65.1,54.6,56.1,51.2,45.7,95,63,38,29.96,29.91,19,5,19,0.00
2013-6-8,78.7,69.0,54.8,54.6,47.8,40.9,78,49,29,30.01,29.95,13,2,13,4.90
2013-6-9,80.6,69.4,62.8,66.4,59.6,46.9,97,74,32,30.00,29.82,30,7,30,0.00
2013-6-10,78.3,70.4,61.1,67.8,60.3,53.9,100,74,45,29.93,29.78,17,4,17,0.00
2013-6-11,86.8,74.5,61.5,73.2,66.1,56.0,100,78,41,29.98,29.84,20,5,20,0.05
2013-6-12,95.0,82.3,70.1,75.8,67.6,52.0,100,67,25,29.93,29.64,38,10,38,0.00
2013-6-13,80.9,74.5,67.3,71.6,55.7,41.4,100,57,26,30.03,29.71,31,8,31,0.00
2013-6-14,80.2,70.1,58.8,58.5,51.6,44.1,90,55,31,30.15,30.00,14,3,14,0.00
2013-6-15,77.4,71.2,66.3,73.8,64.8,48.5,100,82,45,30.10,29.92,38,7,38,0.75
2013-6-16,82.3,73.2,65.3,74.0,69.8,65.1,100,90,65,30.01,29.93,14,5,14,0.01
2013-6-17,86.4,76.9,65.0,75.7,62.5,47.9,100,68,27,29.99,29.92,12,3,12,0.00
2013-6-18,80.4,72.2,64.3,70.7,60.9,49.9,100,72,38,30.06,29.92,21,6,21,0.00
2013-6-19,84.0,71.1,56.9,62.2,53.1,45.3,86,57,27,30.13,30.05,15,5,15,0.00
2013-6-20,89.3,78.3,65.2,70.9,58.1,47.1,98,56,24,30.16,30.07,18,5,18,0.00
2013-6-21,89.6,76.7,67.8,74.9,67.5,56.9,100,77,41,30.12,29.99,39,9,39,0.56
2013-6-22,86.2,76.1,67.4,78.2,73.5,67.1,99,92,66,30.10,30.00,30,7,30,0.00
2013-6-23,87.5,74.2,66.9,74.6,70.1,65.0,100,89,53,30.08,29.94,25,7,25,0.01
2013-6-24,87.5,73.0,66.7,78.1,70.3,65.6,100,92,60,30.14,29.92,41,5,41,0.17
2013-6-25,85.7,76.2,70.1,80.3,74.2,69.7,100,94,73,29.97,29.84,26,8,27,0.03
2013-6-26,84.7,76.6,68.4,79.2,74.3,68.4,100,93,72,29.89,29.74,29,7,29,0.02
2013-6-27,88.8,79.3,72.2,78.1,70.1,59.7,100,77,38,29.88,29.78,28,9,28,0.00
2013-6-28,83.3,75.8,66.2,71.1,59.7,47.5,100,63,30,29.84,29.69,31,10,31,0.00
2013-6-29,74.5,67.9,64.0,69.9,65.9,59.8,100,94,75,29.79,29.66,19,7,19,0.23
2013-6-30,77.1,69.6,61.6,65.0,57.9,43.8,99,69,42,30.00,29.79,25,8,25,0.00
2013-7-1,77.2,69.4,60.8,52.1,44.2,37.1,71,42,25,30.06,29.98,30,10,33,0.00
2013-7-2,73.5,65.8,60.5,59.3,51.7,44.3,88,62,40,30.08,30.03,23,8,23,0.00
2013-7-3,78.8,67.6,59.5,62.0,55.0,42.7,98,70,29,30.11,30.04,15,3,15,0.00
2013-7-4,84.5,73.0,59.4,66.5,57.9,50.0,100,64,32,30.12,30.05,20,4,20,0.00
2013-7-5,84.7,74.0,61.7,71.9,60.4,48.4,100,68,30,30.12,30.03,16,4,16,0.00
2013-7-6,84.6,74.2,61.3,73.7,65.7,56.8,100,78,42,30.10,30.00,14,4,14,0.00
2013-7-7,89.2,78.6,67.0,73.2,67.3,60.3,97,72,41,30.06,29.98,20,6,20,0.00
2013-7-8,85.6,78.9,73.0,77.9,74.0,67.5,100,86,58,30.10,30.00,24,6,26,0.09
2013-7-9,89.8,81.4,75.9,81.2,77.6,73.2,100,89,60,30.05,29.92,17,5,17,0.04
2013-7-10,86.9,79.1,69.6,79.7,69.4,57.4,100,76,39,30.04,29.87,18,5,22,0.00
2013-7-11,79.3,72.5,64.0,67.3,56.1,45.0,96,61,31,30.12,30.04,15,4,16,0.00
2013-7-12,82.2,71.0,59.0,60.1,51.0,41.2,88,54,26,30.17,30.08,15,2,15,0.00
2013-7-13,82.5,72.7,60.1,66.5,58.0,46.7,99,65,30,30.17,30.09,14,3,14,0.00
2013-7-14,88.5,77.7,64.7,73.2,65.5,56.8,100,70,37,30.21,30.12,16,4,16,0.00
2013-7-15,87.8,79.2,71.2,78.9,74.6,69.8,100,87,57,30.28,30.20,21,3,21,0.00
2013-7-16,91.5,82.0,71.9,78.9,71.4,61.4,100,74,38,30.34,30.26,16,4,16,0.00
2013-7-17,93.3,83.0,70.9,79.1,71.9,63.7,100,74,39,30.36,30.22,12,2,12,0.00
2013-7-18,94.0,84.0,73.1,80.5,72.8,64.5,100,73,39,30.23,30.02,17,4,17,0.00
2013-7-19,94.2,84.3,74.7,77.4,71.7,62.8,99,70,37,30.02,29.84,22,7,22,0.00
2013-7-20,86.0,79.7,71.8,77.3,65.4,0.0,97,66,33,29.95,29.85,15,4,15,0.00
2013-7-21,82.2,74.6,66.2,76.6,71.7,65.8,100,91,74,29.98,29.88,12,3,12,0.05
2013-7-22,87.7,77.3,66.7,76.2,69.0,58.2,100,79,39,29.90,29.79,37,4,38,0.04
2013-7-23,80.7,72.8,64.7,72.0,65.1,56.2,100,79,49,29.97,29.80,15,6,18,0.11
2013-7-24,75.0,66.6,58.1,63.3,53.3,44.2,100,67,35,30.07,29.96,17,5,18,0.00
2013-7-25,80.5,68.7,54.7,62.9,53.9,46.1,97,64,32,30.14,30.06,11,2,11,0.00
2013-7-26,73.5,66.7,60.7,72.6,65.1,60.2,100,95,80,30.09,29.94,22,5,22,0.39
2013-7-27,68.8,62.0,55.8,61.5,52.7,41.6,100,75,41,30.00,29.95,25,8,25,0.00
2013-7-28,72.8,62.8,51.1,54.8,50.7,45.7,98,68,40,30.08,29.97,22,7,23,0.00
2013-7-29,78.7,66.4,53.2,61.7,53.4,43.6,99,68,31,30.19,30.08,12,2,13,0.00
2013-7-30,69.4,66.2,63.6,68.9,64.6,55.6,100,95,68,30.18,30.06,15,3,15,0.37
2013-7-31,75.5,70.0,65.3,74.3,69.2,65.2,100,98,86,30.07,30.01,16,3,16,0.01
2013-8-1,81.7,72.4,62.2,71.9,61.6,51.9,100,73,39,30.08,29.99,16,4,19,0.00
2013-8-2,83.5,73.7,65.3,74.9,68.7,59.8,100,86,46,29.99,29.91,22,6,22,0.04
2013-8-3,80.8,72.3,64.3,71.2,60.1,46.9,100,70,34,30.15,29.98,13,4,14,0.06
2013-8-4,80.1,69.6,59.3,63.3,55.1,43.8,100,65,28,30.21,30.12,10,2,10,0.00
2013-8-5,76.5,68.3,57.7,69.3,62.9,57.3,100,84,59,30.13,29.90,18,5,18,0.00
2013-8-6,86.6,75.0,65.8,75.7,71.3,65.4,100,90,54,29.95,29.86,16,4,16,0.00
2013-8-7,88.5,77.3,69.7,79.6,74.6,67.8,100,92,60,29.95,29.84,14,4,14,0.00
2013-8-8,79.3,72.2,65.0,70.3,66.6,62.0,100,84,60,30.02,29.95,16,7,16,0.00
2013-8-9,82.3,72.1,61.2,69.7,60.4,48.3,98,70,39,30.09,30.00,9,3,9,0.00
2013-8-10,81.5,72.8,63.7,70.4,57.8,46.8,100,64,33,30.17,30.09,14,4,14,0.00
2013-8-11,83.7,71.5,58.3,67.7,58.6,50.7,98,69,34,30.17,30.08,12,3,12,0.00
2013-8-12,84.7,73.8,63.6,73.1,67.2,62.9,99,82,52,30.10,29.93,12,4,13,0.00
2013-8-13,73.4,66.6,54.9,68.1,54.1,39.2,100,69,32,30.18,29.96,20,6,20,0.00
2013-8-14,72.3,62.0,49.7,54.5,48.2,40.3,97,65,34,30.25,30.16,16,2,19,0.00
2013-8-15,73.5,62.3,54.5,58.9,52.1,43.6,100,74,36,30.22,30.13,12,1,12,0.00
2013-8-16,77.8,68.8,59.4,60.0,52.8,41.0,97,62,28,30.20,30.15,16,4,16,0.00
2013-8-17,78.0,66.9,53.6,63.6,54.5,46.5,100,69,34,30.25,30.16,15,3,15,0.00
2013-8-18,81.5,69.6,58.0,62.3,55.6,47.0,98,66,34,30.23,30.12,13,3,14,0.00
2013-8-19,85.7,72.5,59.4,68.2,61.2,54.1,100,73,36,30.16,30.07,14,2,14,0.00
2013-8-20,86.5,74.3,61.2,71.2,63.1,53.6,100,74,34,30.15,30.06,16,3,16,0.00
2013-8-21,88.6,75.8,62.7,73.6,64.1,55.7,100,73,34,30.13,30.03,19,4,19,0.00
2013-8-22,80.2,74.1,68.6,74.0,70.6,66.4,100,89,73,30.14,30.05,25,4,25,0.00
2013-8-23,83.0,72.5,64.0,72.0,65.3,55.3,100,82,41,30.18,30.10,14,4,14,0.00
2013-8-24,86.9,73.9,60.5,70.3,63.2,57.6,100,74,39,30.26,30.17,15,4,15,0.00
2013-8-25,88.5,81.4,70.3,68.9,61.6,54.6,93,55,33,30.25,30.19,16,5,16,0.00
2013-8-26,91.1,78.7,65.1,74.7,66.7,59.1,99,71,36,30.22,30.05,16,4,16,0.00
2013-8-27,92.6,81.3,71.8,76.7,67.3,56.7,100,68,32,30.07,29.94,20,6,20,0.00
2013-8-28,95.0,81.8,70.7,80.6,67.8,61.5,100,66,35,30.03,29.94,18,6,18,0.00
2013-8-29,84.3,76.1,69.5,77.0,73.3,69.5,100,92,66,30.10,29.99,13,2,13,0.00
2013-8-30,96.2,81.7,68.4,78.6,68.1,56.2,100,70,27,30.00,29.82,22,4,22,0.00
2013-8-31,93.4,79.2,68.0,76.9,69.2,5.3,100,74,42,29.85,29.75,16,5,16,0.00
2013-9-1,89.6,76.2,67.1,76.7,66.7,56.6,100,77,35,29.86,29.77,16,4,16,0.00
2013-9-2,81.5,71.7,63.7,66.2,57.3,48.6,98,64,35,30.00,29.86,15,5,15,0.00
2013-9-3,78.8,67.2,56.3,63.9,55.5,47.7,100,71,35,30.12,30.00,11,2,11,0.00
2013-9-4,84.3,69.7,54.3,65.2,53.5,44.3,100,64,26,30.18,30.08,10,2,10,0.00
2013-9-5,87.1,72.4,59.3,70.4,60.3,53.1,100,71,33,30.23,30.14,11,2,11,0.00
2013-9-6,86.7,72.9,59.7,65.5,58.3,50.3,96,65,29,30.21,30.05,18,4,18,0.00
2013-9-7,88.9,75.3,61.5,70.1,61.2,49.0,99,67,27,30.06,29.92,20,4,20,0.00
2013-9-8,87.0,77.1,69.4,72.9,68.9,60.7,100,79,42,30.01,29.92,11,3,12,0.00
2013-9-9,96.1,81.7,69.9,77.2,68.8,56.3,100,72,28,29.96,29.88,22,6,22,0.00
2013-9-10,96.1,82.5,69.2,74.2,61.0,41.9,95,56,16,30.08,29.96,27,6,27,0.00
2013-9-11,94.3,80.7,69.3,71.1,61.7,49.3,90,57,23,30.12,30.03,20,5,20,0.00
2013-9-12,84.9,74.2,62.8,73.8,56.0,29.8,100,63,16,30.11,30.02,28,6,28,0.15
2013-9-13,69.0,60.9,52.3,56.5,40.5,26.9,97,52,21,30.21,30.10,16,7,21,0.00
2013-9-14,73.4,59.1,45.7,50.9,41.0,29.7,99,59,22,30.21,30.05,16,3,16,0.00
2013-9-15,67.5,61.4,53.8,65.0,53.6,43.1,100,77,46,30.18,30.01,16,6,18,0.16
2013-9-16,69.6,60.7,52.4,58.6,52.3,43.0,100,78,40,30.35,30.18,17,8,18,3.12
2013-9-17,75.7,62.0,48.8,58.2,51.7,46.5,100,74,37,30.33,30.12,16,4,17,3.12
2013-9-18,85.8,73.3,62.8,74.1,63.0,53.2,99,73,41,30.12,29.94,28,8,28,0.07
2013-9-19,91.7,79.5,69.1,74.4,66.1,57.3,100,69,33,29.98,29.82,51,9,51,0.33
2013-9-20,73.3,67.1,55.2,71.3,61.3,44.8,100,84,42,29.93,29.86,22,8,22,0.07
2013-9-21,69.5,59.7,50.8,55.4,48.1,38.0,100,71,33,29.97,29.89,22,7,24,14.64
2013-9-22,70.2,58.4,47.6,52.9,45.5,35.7,99,68,29,30.08,29.97,10,3,10,14.64
2013-9-23,74.8,60.2,45.8,52.1,43.8,34.1,100,62,24,30.10,29.99,16,4,16,14.64
2013-9-24,75.2,62.4,49.2,55.5,49.6,45.1,99,68,35,30.02,29.89,15,4,15,14.64
2013-9-25,79.0,65.1,53.1,55.4,51.4,47.3,96,65,34,29.95,29.89,17,6,17,14.64
2013-9-26,82.1,66.8,53.3,58.7,50.6,42.1,100,63,26,30.08,29.95,13,3,13,14.64
2013-9-27,82.7,67.1,52.2,56.9,45.4,28.5,95,53,15,30.16,30.05,17,4,17,14.64
2013-9-28,82.3,68.6,54.9,69.0,56.1,48.9,100,70,33,30.08,29.93,37,8,37,0.41
2013-9-29,69.8,60.6,52.4,61.2,46.8,29.4,100,68,22,30.11,30.01,14,5,16,0.09
2013-9-30,77.9,62.0,47.3,63.5,49.8,38.5,100,72,25,30.02,29.89,20,5,20,26.64
2013-10-1,80.5,69.3,61.5,69.2,65.1,58.9,100,89,50,30.02,29.93,24,9,24,26.64
2013-10-2,82.5,70.6,62.9,72.2,65.5,54.5,100,87,39,30.10,29.98,14,3,14,26.64
2013-10-3,81.7,70.4,64.2,73.9,68.0,63.1,100,93,55,30.00,29.86,27,7,27,0.65
2013-10-4,85.7,74.2,64.6,74.7,66.9,56.7,100,82,39,30.00,29.92,18,7,18,42.24
2013-10-5,77.3,71.1,59.1,74.6,67.8,57.9,100,90,55,29.96,29.82,17,8,21,42.24
2013-10-6,59.2,51.9,46.7,57.8,44.5,33.9,100,78,44,29.87,29.80,28,9,28,0.01
2013-10-7,69.5,56.3,45.6,52.9,45.3,38.9,100,72,35,30.13,29.85,19,8,20,42.48
2013-10-8,76.8,60.8,45.3,53.7,43.0,32.0,99,60,20,30.23,30.13,17,3,18,42.48
2013-10-9,73.8,59.0,46.2,52.2,43.0,33.1,100,63,23,30.25,30.13,15,2,15,42.48
2013-10-10,77.8,62.4,48.7,60.9,50.9,45.6,100,71,34,30.19,30.05,19,3,19,42.48
2013-10-11,79.2,66.0,55.0,62.8,52.6,43.5,100,68,29,30.08,29.93,27,6,27,42.48
2013-10-12,73.2,64.2,55.8,63.8,51.9,34.1,96,68,27,30.23,29.97,20,6,20,42.48
2013-10-13,66.0,55.4,45.3,40.6,30.5,14.1,79,43,15,30.42,30.23,24,4,24,42.48
2013-10-14,67.0,53.6,39.7,46.2,34.5,18.8,97,54,16,30.40,30.10,17,4,20,42.48
2013-10-15,69.1,60.2,50.6,65.7,52.5,38.0,100,77,50,30.10,29.84,21,9,22,0.03
2013-10-16,55.2,51.2,45.7,45.7,43.4,40.7,90,75,60,30.02,29.95,23,9,23,43.20
2013-10-17,61.4,51.9,46.0,51.5,42.2,31.1,100,74,32,30.00,29.89,27,6,27,0.08
2013-10-18,55.5,47.6,41.8,45.8,40.2,31.8,100,78,43,30.05,29.91,24,8,24,0.01
2013-10-19,56.5,47.6,39.6,44.3,37.0,0.0,100,71,34,30.02,29.89,28,9,28,0.04
2013-10-20,69.5,54.3,38.4,43.5,37.3,29.9,97,59,24,29.92,29.78,33,10,33,46.32
2013-10-21,58.4,46.6,33.6,44.5,30.3,18.9,84,54,30,30.06,29.88,30,9,30,46.32
2013-10-22,43.7,36.6,28.8,43.5,34.7,22.4,100,93,63,30.06,29.86,22,4,22,0.33
2013-10-23,46.6,39.4,34.2,38.2,33.1,23.3,100,81,42,30.12,29.98,22,10,22,54.24
2013-10-24,43.7,37.5,30.3,37.9,26.0,0.0,98,65,39,30.39,30.10,25,10,25,54.24
2013-10-25,53.9,39.1,25.5,35.1,26.0,19.2,97,65,27,30.48,30.17,29,8,29,54.24
2013-10-26,56.7,45.7,35.2,33.6,27.5,20.3,73,50,26,30.17,29.98,33,12,33,54.24
2013-10-27,57.0,42.9,28.7,36.1,26.9,23.4,94,58,28,30.14,30.02,18,4,18,54.24
2013-10-28,62.3,46.5,31.9,43.6,30.0,20.5,96,60,21,30.33,30.08,17,4,17,54.24
2013-10-29,56.9,47.9,37.6,52.5,43.4,35.5,100,87,46,30.33,30.13,14,5,14,54.24
2013-10-30,64.6,58.1,52.1,64.3,58.1,0.0,100,100,100,30.14,29.81,28,5,28,2.26
2013-10-31,64.3,57.4,45.9,64.2,57.4,45.6,100,100,99,29.81,29.32,30,12,30,1.11
2013-11-1,52.9,47.2,42.2,48.0,45.9,41.8,100,96,71,29.83,29.56,23,9,23,0.00
2013-11-2,51.5,43.2,36.6,43.4,36.9,29.4,100,81,46,30.19,29.82,24,8,24,0.00
2013-11-3,53.7,43.0,30.3,42.6,33.8,29.3,100,73,40,30.32,30.18,19,5,19,0.00
2013-11-4,58.7,51.2,45.0,47.4,40.7,34.4,81,68,48,30.23,30.11,30,11,30,0.00
2013-11-5,55.9,53.2,51.1,55.4,52.4,47.1,100,97,81,30.28,29.99,28,10,28,0.15
2013-11-6,57.5,45.2,34.1,57.2,44.9,33.3,100,99,95,30.25,29.88,38,14,38,1.07
2013-11-7,49.9,37.3,29.6,39.3,33.3,28.8,99,87,50,30.34,30.23,30,8,30,0.00
2013-11-8,49.6,41.7,28.9,37.5,31.2,26.3,100,70,41,30.36,30.02,26,9,26,0.00
2013-11-9,61.5,50.3,42.2,42.9,35.5,29.6,91,60,32,30.23,29.97,36,15,36,0.00
2013-11-10,50.2,40.5,32.7,35.3,30.9,27.2,90,70,43,30.44,30.23,20,6,20,0.00
2013-11-11,52.7,39.0,26.5,43.0,33.0,22.0,100,80,49,30.55,30.15,26,9,26,0.04
2013-11-12,31.9,25.2,20.6,22.4,18.8,15.6,89,77,53,30.76,30.55,15,7,16,0.00
2013-11-13,41.9,30.5,18.7,21.2,18.9,14.9,96,65,36,30.67,30.24,30,11,30,0.00
2013-11-14,52.2,39.6,29.7,26.7,21.9,18.0,67,51,27,30.25,30.01,27,12,27,0.00
2013-11-15,49.5,42.6,35.8,41.2,34.7,25.8,96,74,56,30.02,29.92,22,9,22,0.00
2013-11-16,59.4,54.2,42.0,59.2,53.9,40.8,100,99,94,29.93,29.61,37,16,37,0.13
2013-11-17,71.7,59.7,48.8,68.2,56.5,42.6,100,90,64,29.80,29.24,58,20,58,0.06
2013-11-18,48.2,38.5,32.9,31.5,28.4,26.1,86,69,44,30.32,30.15,30,10,32,0.00
2013-11-19,44.7,34.8,25.6,31.5,28.0,22.3,98,78,44,30.39,30.26,13,5,13,0.00
2013-11-20,43.0,37.8,31.5,41.9,34.9,0.0,100,90,63,30.28,30.04,22,7,22,0.50
2013-11-21,49.1,46.0,42.3,49.1,45.7,41.7,100,99,96,30.24,30.10,13,3,13,0.10
2013-11-22,44.2,35.5,26.7,43.8,34.6,26.1,100,96,83,30.54,30.23,22,8,22,2.07
2013-11-23,27.0,22.0,15.3,26.2,13.7,4.9,99,71,49,30.75,30.50,32,10,32,2.07
2013-11-24,29.2,20.1,9.8,14.6,8.8,0.2,92,63,30,30.77,30.41,16,6,17,2.07
2013-11-25,33.2,28.9,22.9,28.9,19.5,12.0,97,68,49,30.41,30.13,24,10,24,2.16
2013-11-26,35.9,26.6,18.5,30.7,17.2,5.2,94,69,48,30.23,30.07,33,10,33,2.16
2013-11-27,28.5,20.1,13.8,13.7,7.5,2.8,77,58,40,30.32,30.21,19,7,22,2.07
2013-11-28,38.7,27.5,18.6,18.5,15.3,10.5,77,61,42,30.50,30.18,24,8,24,2.16
2013-11-29,38.5,28.7,15.3,23.5,18.4,13.4,95,67,43,30.62,30.38,14,4,14,1.80
2013-11-30,52.9,38.8,30.0,32.7,29.1,23.1,92,71,39,30.38,30.09,20,7,20,2.07
2013-12-1,47.9,37.3,28.4,38.0,30.6,25.6,100,79,45,30.13,29.97,10,3,10,2.07
2013-12-2,45.1,38.2,31.4,40.9,36.4,31.2,100,94,76,29.97,29.69,15,4,15,2.07
2013-12-3,50.7,45.0,36.9,50.7,45.0,36.8,100,100,100,29.72,29.64,19,6,19,2.07
2013-12-4,54.9,47.1,35.4,54.9,46.9,34.6,100,99,95,29.84,29.50,30,9,31,0.01
2013-12-5,35.5,24.8,20.7,34.6,17.4,8.2,97,74,57,30.31,29.83,32,14,32,2.30
2013-12-6,21.5,17.1,12.0,12.4,7.5,3.5,74,66,53,30.59,30.28,19,8,20,2.30
2013-12-7,20.7,13.7,7.9,6.4,3.7,-0.4,83,65,40,30.72,30.54,14,5,15,2.30
2013-12-8,25.7,21.6,13.9,25.7,19.2,4.9,100,91,65,30.54,30.01,22,9,23,2.30
2013-12-9,25.1,17.0,6.6,24.9,10.6,-2.0,100,76,60,30.29,30.02,30,11,30,2.30
2013-12-10,27.2,16.4,3.4,13.8,7.0,-2.3,91,67,47,30.32,30.11,36,8,36,2.30
2013-12-11,25.0,15.1,3.8,18.8,5.8,-5.8,90,67,45,30.63,30.25,27,8,27,2.30
2013-12-12,31.1,16.8,1.6,13.7,6.4,-5.0,77,64,47,30.61,30.23,26,6,26,2.30
2013-12-13,39.1,28.0,14.7,32.2,22.5,10.1,100,82,49,30.23,30.02,16,4,16,2.30
2013-12-14,32.4,28.5,20.9,32.3,28.2,20.2,100,99,96,30.09,29.92,24,9,24,2.30
2013-12-15,21.6,16.9,13.0,20.5,13.9,10.2,98,88,72,30.15,30.07,29,9,29,2.30
2013-12-16,22.2,18.4,13.9,22.2,17.8,12.8,100,97,93,30.13,30.02,17,6,17,2.30
2013-12-17,34.7,26.0,21.8,32.2,22.3,14.4,100,86,67,30.21,30.07,30,12,30,0.02
2013-12-18,36.9,27.7,12.1,33.6,21.4,9.0,92,78,50,30.22,29.89,21,9,25,0.01
2013-12-19,42.5,38.7,32.4,42.4,38.2,31.9,100,98,92,29.93,29.77,18,6,18,0.05
2013-12-20,44.2,36.2,30.7,44.1,36.2,30.7,100,100,100,29.87,29.72,19,6,19,0.12
2013-12-21,33.7,31.3,28.9,33.7,31.3,28.7,100,100,100,29.89,29.57,15,4,15,7.20
2013-12-22,33.7,29.0,19.7,33.6,28.8,19.1,100,99,97,30.24,29.61,23,10,23,0.01
2013-12-23,20.2,12.1,5.2,19.5,8.0,-3.5,98,83,67,30.55,30.24,28,13,28,7.44
2013-12-24,21.2,11.9,0.6,13.6,5.4,-5.0,84,75,68,30.62,30.36,22,8,22,7.44
2013-12-25,30.4,26.8,20.8,29.9,25.1,12.8,100,94,72,30.36,30.19,30,11,30,7.44
2013-12-26,38.0,30.7,19.0,33.8,27.9,18.2,98,90,66,30.35,30.20,27,9,27,0.02
2013-12-27,45.4,35.0,26.0,38.0,32.4,25.8,100,91,67,30.34,30.18,18,7,18,7.92
2013-12-28,51.4,39.5,32.0,37.0,33.6,31.1,98,81,54,30.18,29.89,21,9,21,3.96
2013-12-29,36.0,23.3,6.5,33.9,20.7,0.1,100,90,72,30.28,29.84,29,14,29,0.00
2013-12-30,18.2,11.6,2.2,12.7,3.3,-3.9,80,69,51,30.37,30.20,17,4,17,0.00
2013-12-31,25.2,18.3,12.3,18.9,13.3,9.5,91,81,63,30.41,30.21,22,8,23,0.00
2014-1-1,23.7,20.1,16.2,22.3,19.1,14.6,99,96,89,30.22,30.13,25,13,25,0.00
2014-1-2,16.6,11.6,3.3,15.3,8.4,0.4,97,87,75,30.46,30.13,29,10,29,0.00